Year,Month,Day,Hour,Minute,Value (Times are PST for windspeed in km/hr)
2010,08,30,00,00,1.80
2010,08,30,00,01,0.20
2010,08,30,00,02,0.50
2010,08,30,00,03,0.00
2010,08,30,00,04,0.00
2010,08,30,00,05,0.00
2010,08,30,00,06,0.10
2010,08,30,00,07,0.00
2010,08,30,00,08,0.00
2010,08,30,00,09,0.20
2010,08,30,00,10,0.00
2010,08,30,00,11,0.00
2010,08,30,00,12,0.60
2010,08,30,00,13,0.00
2010,08,30,00,14,2.40
2010,08,30,00,15,1.10
2010,08,30,00,16,3.10
2010,08,30,00,17,3.20
2010,08,30,00,18,0.50
2010,08,30,00,19,0.00
2010,08,30,00,20,0.40
2010,08,30,00,21,3.60
2010,08,30,00,22,0.60
2010,08,30,00,23,3.00
2010,08,30,00,24,2.30
2010,08,30,00,25,1.80
2010,08,30,00,26,0.00
2010,08,30,00,27,0.00
2010,08,30,00,28,0.20
2010,08,30,00,29,0.00
2010,08,30,00,30,0.00
2010,08,30,00,31,0.20
2010,08,30,00,32,0.10
2010,08,30,00,33,0.20
2010,08,30,00,34,1.00
2010,08,30,00,35,0.00
2010,08,30,00,36,0.00
2010,08,30,00,37,0.00
2010,08,30,00,38,0.80
2010,08,30,00,39,0.90
2010,08,30,00,40,0.20
2010,08,30,00,41,0.10
2010,08,30,00,42,0.00
2010,08,30,00,43,0.00
2010,08,30,00,44,0.00
2010,08,30,00,45,0.00
2010,08,30,00,46,1.60
2010,08,30,00,47,0.70
2010,08,30,00,48,0.00
2010,08,30,00,49,0.00
2010,08,30,00,50,0.20
2010,08,30,00,51,1.10
2010,08,30,00,52,1.50
2010,08,30,00,53,0.00
2010,08,30,00,54,0.00
2010,08,30,00,55,0.00
2010,08,30,00,56,0.00
2010,08,30,00,57,0.00
2010,08,30,00,58,0.10
2010,08,30,00,59,1.10
2010,08,30,01,00,0.80
2010,08,30,01,01,2.50
2010,08,30,01,02,1.20
2010,08,30,01,03,0.20
2010,08,30,01,04,0.10
2010,08,30,01,05,0.00
2010,08,30,01,06,0.50
2010,08,30,01,07,0.00
2010,08,30,01,08,0.00
2010,08,30,01,09,0.00
2010,08,30,01,10,0.00
2010,08,30,01,11,0.00
2010,08,30,01,12,0.20
2010,08,30,01,13,1.00
2010,08,30,01,14,0.60
2010,08,30,01,15,0.50
2010,08,30,01,16,3.50
2010,08,30,01,17,1.40
2010,08,30,01,18,0.10
2010,08,30,01,19,0.10
2010,08,30,01,20,0.00
2010,08,30,01,21,0.00
2010,08,30,01,22,0.00
2010,08,30,01,23,0.00
2010,08,30,01,24,0.00
2010,08,30,01,25,0.70
2010,08,30,01,26,1.50
2010,08,30,01,27,1.50
2010,08,30,01,28,0.10
2010,08,30,01,29,0.00
2010,08,30,01,30,0.00
2010,08,30,01,31,0.00
2010,08,30,01,32,0.00
2010,08,30,01,33,0.00
2010,08,30,01,34,0.00
2010,08,30,01,35,1.30
2010,08,30,01,36,1.50
2010,08,30,01,37,2.30
2010,08,30,01,38,2.30
2010,08,30,01,39,1.90
2010,08,30,01,40,0.10
2010,08,30,01,41,0.10
2010,08,30,01,42,0.10
2010,08,30,01,43,0.00
2010,08,30,01,44,0.20
2010,08,30,01,45,0.50
2010,08,30,01,46,0.00
2010,08,30,01,47,0.00
2010,08,30,01,48,0.00
2010,08,30,01,49,0.10
2010,08,30,01,50,0.00
2010,08,30,01,51,0.00
2010,08,30,01,52,0.00
2010,08,30,01,53,0.10
2010,08,30,01,54,0.30
2010,08,30,01,55,0.00
2010,08,30,01,56,0.00
2010,08,30,01,57,0.00
2010,08,30,01,58,0.00
2010,08,30,01,59,1.00
2010,08,30,02,00,0.00
2010,08,30,02,01,0.10
2010,08,30,02,02,0.00
2010,08,30,02,03,0.10
2010,08,30,02,04,0.00
2010,08,30,02,05,0.00
2010,08,30,02,06,0.00
2010,08,30,02,07,0.00
2010,08,30,02,08,0.00
2010,08,30,02,09,0.00
2010,08,30,02,10,0.00
2010,08,30,02,11,0.10
2010,08,30,02,12,0.30
2010,08,30,02,13,0.60
2010,08,30,02,14,0.50
2010,08,30,02,15,0.10
2010,08,30,02,16,0.80
2010,08,30,02,17,0.50
2010,08,30,02,18,0.10
2010,08,30,02,19,0.00
2010,08,30,02,20,0.00
2010,08,30,02,21,0.00
2010,08,30,02,22,0.00
2010,08,30,02,23,0.00
2010,08,30,02,24,0.00
2010,08,30,02,25,0.00
2010,08,30,02,26,0.00
2010,08,30,02,27,0.00
2010,08,30,02,28,0.00
2010,08,30,02,29,0.00
2010,08,30,02,30,0.00
2010,08,30,02,31,0.00
2010,08,30,02,32,0.00
2010,08,30,02,33,0.00
2010,08,30,02,34,0.00
2010,08,30,02,35,0.00
2010,08,30,02,36,0.00
2010,08,30,02,37,0.20
2010,08,30,02,38,0.00
2010,08,30,02,39,0.00
2010,08,30,02,40,0.00
2010,08,30,02,41,0.00
2010,08,30,02,42,0.00
2010,08,30,02,43,0.00
2010,08,30,02,44,0.00
2010,08,30,02,45,0.00
2010,08,30,02,46,0.00
2010,08,30,02,47,0.00
2010,08,30,02,48,0.00
2010,08,30,02,49,0.00
2010,08,30,02,50,0.00
2010,08,30,02,51,0.00
2010,08,30,02,52,0.00
2010,08,30,02,53,0.00
2010,08,30,02,54,0.00
2010,08,30,02,55,0.00
2010,08,30,02,56,0.00
2010,08,30,02,57,0.00
2010,08,30,02,58,0.00
2010,08,30,02,59,0.00
2010,08,30,03,00,0.00
2010,08,30,03,01,0.00
2010,08,30,03,02,0.00
2010,08,30,03,03,0.00
2010,08,30,03,04,0.00
2010,08,30,03,05,0.00
2010,08,30,03,06,0.00
2010,08,30,03,07,0.00
2010,08,30,03,08,0.00
2010,08,30,03,09,0.00
2010,08,30,03,10,0.00
2010,08,30,03,11,0.00
2010,08,30,03,12,0.00
2010,08,30,03,13,0.00
2010,08,30,03,14,0.00
2010,08,30,03,15,0.00
2010,08,30,03,16,0.00
2010,08,30,03,17,0.00
2010,08,30,03,18,0.00
2010,08,30,03,19,0.00
2010,08,30,03,20,0.00
2010,08,30,03,21,0.00
2010,08,30,03,22,0.00
2010,08,30,03,23,0.00
2010,08,30,03,24,0.00
2010,08,30,03,25,0.00
2010,08,30,03,26,0.00
2010,08,30,03,27,0.00
2010,08,30,03,28,2.10
2010,08,30,03,29,1.60
2010,08,30,03,30,1.60
2010,08,30,03,31,1.60
2010,08,30,03,32,1.50
2010,08,30,03,33,0.20
2010,08,30,03,34,0.00
2010,08,30,03,35,0.00
2010,08,30,03,36,0.00
2010,08,30,03,37,0.00
2010,08,30,03,38,0.10
2010,08,30,03,39,0.00
2010,08,30,03,40,0.00
2010,08,30,03,41,0.00
2010,08,30,03,42,0.00
2010,08,30,03,43,0.20
2010,08,30,03,44,0.40
2010,08,30,03,45,0.00
2010,08,30,03,46,0.00
2010,08,30,03,47,0.00
2010,08,30,03,48,0.00
2010,08,30,03,49,0.00
2010,08,30,03,50,0.00
2010,08,30,03,51,0.00
2010,08,30,03,52,0.00
2010,08,30,03,53,0.00
2010,08,30,03,54,0.30
2010,08,30,03,55,0.60
2010,08,30,03,56,1.50
2010,08,30,03,57,1.60
2010,08,30,03,58,1.40
2010,08,30,03,59,0.10
2010,08,30,04,00,0.00
2010,08,30,04,01,0.00
2010,08,30,04,02,0.00
2010,08,30,04,03,0.00
2010,08,30,04,04,0.00
2010,08,30,04,05,0.00
2010,08,30,04,06,0.00
2010,08,30,04,07,0.00
2010,08,30,04,08,0.00
2010,08,30,04,09,0.00
2010,08,30,04,10,0.00
2010,08,30,04,11,0.00
2010,08,30,04,12,0.20
2010,08,30,04,13,0.30
2010,08,30,04,14,0.10
2010,08,30,04,15,0.00
2010,08,30,04,16,0.00
2010,08,30,04,17,0.00
2010,08,30,04,18,0.00
2010,08,30,04,19,0.00
2010,08,30,04,20,0.00
2010,08,30,04,21,0.00
2010,08,30,04,22,0.00
2010,08,30,04,23,0.00
2010,08,30,04,24,0.00
2010,08,30,04,25,0.00
2010,08,30,04,26,0.00
2010,08,30,04,27,0.00
2010,08,30,04,28,0.00
2010,08,30,04,29,0.00
2010,08,30,04,30,0.00
2010,08,30,04,31,0.00
2010,08,30,04,32,0.10
2010,08,30,04,33,0.00
2010,08,30,04,34,0.20
2010,08,30,04,35,1.80
2010,08,30,04,36,1.70
2010,08,30,04,37,1.80
2010,08,30,04,38,1.70
2010,08,30,04,39,4.70
2010,08,30,04,40,3.30
2010,08,30,04,41,1.60
2010,08,30,04,42,0.00
2010,08,30,04,43,0.00
2010,08,30,04,44,0.00
2010,08,30,04,45,0.40
2010,08,30,04,46,0.30
2010,08,30,04,47,0.00
2010,08,30,04,48,0.00
2010,08,30,04,49,0.00
2010,08,30,04,50,0.00
2010,08,30,04,51,0.00
2010,08,30,04,52,0.00
2010,08,30,04,53,0.00
2010,08,30,04,54,0.00
2010,08,30,04,55,0.00
2010,08,30,04,56,0.00
2010,08,30,04,57,0.80
2010,08,30,04,58,0.10
2010,08,30,04,59,0.40
2010,08,30,05,00,0.00
2010,08,30,05,01,0.00
2010,08,30,05,02,0.00
2010,08,30,05,03,0.00
2010,08,30,05,04,0.00
2010,08,30,05,05,0.00
2010,08,30,05,06,0.00
2010,08,30,05,07,0.00
2010,08,30,05,08,0.00
2010,08,30,05,09,0.00
2010,08,30,05,10,0.00
2010,08,30,05,11,0.00
2010,08,30,05,12,0.00
2010,08,30,05,13,0.00
2010,08,30,05,14,0.00
2010,08,30,05,15,0.00
2010,08,30,05,16,0.00
2010,08,30,05,17,0.00
2010,08,30,05,18,0.00
2010,08,30,05,19,0.00
2010,08,30,05,20,0.00
2010,08,30,05,21,0.00
2010,08,30,05,22,0.00
2010,08,30,05,23,0.30
2010,08,30,05,24,0.00
2010,08,30,05,25,0.10
2010,08,30,05,26,0.50
2010,08,30,05,27,0.00
2010,08,30,05,28,0.00
2010,08,30,05,29,0.00
2010,08,30,05,30,0.00
2010,08,30,05,31,0.10
2010,08,30,05,32,0.10
2010,08,30,05,33,0.10
2010,08,30,05,34,0.90
2010,08,30,05,35,0.20
2010,08,30,05,36,1.90
2010,08,30,05,37,0.60
2010,08,30,05,38,1.20
2010,08,30,05,39,0.20
2010,08,30,05,40,0.10
2010,08,30,05,41,0.70
2010,08,30,05,42,0.10
2010,08,30,05,43,0.20
2010,08,30,05,44,0.10
2010,08,30,05,45,3.30
2010,08,30,05,46,3.00
2010,08,30,05,47,2.60
2010,08,30,05,48,3.50
2010,08,30,05,49,4.10
2010,08,30,05,50,3.90
2010,08,30,05,51,3.70
2010,08,30,05,52,5.10
2010,08,30,05,53,4.50
2010,08,30,05,54,5.10
2010,08,30,05,55,5.20
2010,08,30,05,56,5.70
2010,08,30,05,57,4.70
2010,08,30,05,58,5.00
2010,08,30,05,59,4.00
2010,08,30,06,00,5.10
2010,08,30,06,01,5.10
2010,08,30,06,02,4.90
2010,08,30,06,03,5.00
2010,08,30,06,04,4.10
2010,08,30,06,05,4.60
2010,08,30,06,06,4.30
2010,08,30,06,07,4.70
2010,08,30,06,08,4.90
2010,08,30,06,09,4.90
2010,08,30,06,10,4.20
2010,08,30,06,11,5.10
2010,08,30,06,12,6.20
2010,08,30,06,13,6.80
2010,08,30,06,14,5.90
2010,08,30,06,15,5.90
2010,08,30,06,16,5.70
2010,08,30,06,17,6.10
2010,08,30,06,18,7.00
2010,08,30,06,19,7.80
2010,08,30,06,20,6.90
2010,08,30,06,21,5.00
2010,08,30,06,22,4.70
2010,08,30,06,23,5.00
2010,08,30,06,24,5.50
2010,08,30,06,25,7.10
2010,08,30,06,26,7.60
2010,08,30,06,27,7.90
2010,08,30,06,28,6.50
2010,08,30,06,29,8.30
2010,08,30,06,30,7.70
2010,08,30,06,31,5.10
2010,08,30,06,32,5.40
2010,08,30,06,33,3.80
2010,08,30,06,34,4.50
2010,08,30,06,35,4.40
2010,08,30,06,36,3.00
2010,08,30,06,37,4.90
2010,08,30,06,38,4.40
2010,08,30,06,39,4.70
2010,08,30,06,40,4.50
2010,08,30,06,41,2.90
2010,08,30,06,42,4.00
2010,08,30,06,43,3.40
2010,08,30,06,44,2.80
2010,08,30,06,45,3.40
2010,08,30,06,46,2.70
2010,08,30,06,47,4.40
2010,08,30,06,48,3.10
2010,08,30,06,49,2.10
2010,08,30,06,50,2.60
2010,08,30,06,51,3.00
2010,08,30,06,52,3.50
2010,08,30,06,53,4.20
2010,08,30,06,54,4.00
2010,08,30,06,55,3.00
2010,08,30,06,56,2.00
2010,08,30,06,57,2.20
2010,08,30,06,58,3.30
2010,08,30,06,59,4.20
2010,08,30,07,00,4.90
2010,08,30,07,01,3.90
2010,08,30,07,02,4.80
2010,08,30,07,03,4.30
2010,08,30,07,04,2.90
2010,08,30,07,05,2.10
2010,08,30,07,06,3.80
2010,08,30,07,07,2.60
2010,08,30,07,08,3.50
2010,08,30,07,09,4.60
2010,08,30,07,10,6.70
2010,08,30,07,11,5.60
2010,08,30,07,12,6.80
2010,08,30,07,13,5.00
2010,08,30,07,14,3.00
2010,08,30,07,15,3.30
2010,08,30,07,16,2.40
2010,08,30,07,17,5.40
2010,08,30,07,18,2.80
2010,08,30,07,19,2.20
2010,08,30,07,20,1.00
2010,08,30,07,21,1.90
2010,08,30,07,22,2.50
2010,08,30,07,23,1.90
2010,08,30,07,24,4.10
2010,08,30,07,25,4.50
2010,08,30,07,26,1.60
2010,08,30,07,27,4.80
2010,08,30,07,28,4.10
2010,08,30,07,29,5.10
2010,08,30,07,30,4.20
2010,08,30,07,31,3.80
2010,08,30,07,32,5.80
2010,08,30,07,33,4.40
2010,08,30,07,34,3.30
2010,08,30,07,35,1.40
2010,08,30,07,36,2.40
2010,08,30,07,37,4.30
2010,08,30,07,38,4.00
2010,08,30,07,39,3.10
2010,08,30,07,40,1.00
2010,08,30,07,41,1.50
2010,08,30,07,42,4.30
2010,08,30,07,43,2.60
2010,08,30,07,44,5.80
2010,08,30,07,45,5.20
2010,08,30,07,46,4.20
2010,08,30,07,47,5.90
2010,08,30,07,48,4.90
2010,08,30,07,49,6.70
2010,08,30,07,50,5.00
2010,08,30,07,51,6.60
2010,08,30,07,52,7.20
2010,08,30,07,53,4.70
2010,08,30,07,54,6.40
2010,08,30,07,55,8.20
2010,08,30,07,56,5.70
2010,08,30,07,57,5.40
2010,08,30,07,58,6.10
2010,08,30,07,59,2.00
2010,08,30,08,00,8.20
2010,08,30,08,01,4.20
2010,08,30,08,02,5.10
2010,08,30,08,03,7.90
2010,08,30,08,04,5.40
2010,08,30,08,05,3.40
2010,08,30,08,06,3.90
2010,08,30,08,07,7.70
2010,08,30,08,08,7.30
2010,08,30,08,09,4.30
2010,08,30,08,10,3.10
2010,08,30,08,11,6.50
2010,08,30,08,12,3.90
2010,08,30,08,13,5.70
2010,08,30,08,14,7.30
2010,08,30,08,15,3.70
2010,08,30,08,16,1.50
2010,08,30,08,17,0.10
2010,08,30,08,18,1.60
2010,08,30,08,19,3.50
2010,08,30,08,20,5.60
2010,08,30,08,21,6.30
2010,08,30,08,22,4.30
2010,08,30,08,23,4.70
2010,08,30,08,24,3.70
2010,08,30,08,25,6.20
2010,08,30,08,26,5.80
2010,08,30,08,27,7.70
2010,08,30,08,28,6.90
2010,08,30,08,29,8.50
2010,08,30,08,30,8.70
2010,08,30,08,31,8.00
2010,08,30,08,32,11.30
2010,08,30,08,33,9.30
2010,08,30,08,34,11.10
2010,08,30,08,35,8.20
2010,08,30,08,36,6.90
2010,08,30,08,37,3.10
2010,08,30,08,38,7.30
2010,08,30,08,39,5.90
2010,08,30,08,40,6.10
2010,08,30,08,41,6.10
2010,08,30,08,42,5.70
2010,08,30,08,43,4.30
2010,08,30,08,44,8.30
2010,08,30,08,45,5.00
2010,08,30,08,46,4.80
2010,08,30,08,47,3.10
2010,08,30,08,48,3.30
2010,08,30,08,49,3.80
2010,08,30,08,50,3.60
2010,08,30,08,51,11.40
2010,08,30,08,52,7.60
2010,08,30,08,53,6.10
2010,08,30,08,54,4.60
2010,08,30,08,55,6.60
2010,08,30,08,56,5.20
2010,08,30,08,57,8.20
2010,08,30,08,58,10.00
2010,08,30,08,59,8.20
2010,08,30,09,00,6.50
2010,08,30,09,01,3.50
2010,08,30,09,02,2.90
2010,08,30,09,03,5.70
2010,08,30,09,04,7.10
2010,08,30,09,05,10.00
2010,08,30,09,06,8.30
2010,08,30,09,07,10.90
2010,08,30,09,08,7.90
2010,08,30,09,09,7.60
2010,08,30,09,10,6.80
2010,08,30,09,11,7.10
2010,08,30,09,12,7.00
2010,08,30,09,13,6.80
2010,08,30,09,14,3.40
2010,08,30,09,15,4.00
2010,08,30,09,16,3.90
2010,08,30,09,17,6.10
2010,08,30,09,18,7.60
2010,08,30,09,19,6.60
2010,08,30,09,20,6.00
2010,08,30,09,21,4.70
2010,08,30,09,22,5.20
2010,08,30,09,23,5.10
2010,08,30,09,24,6.40
2010,08,30,09,25,6.30
2010,08,30,09,26,1.90
2010,08,30,09,27,3.60
2010,08,30,09,28,2.90
2010,08,30,09,29,5.30
2010,08,30,09,30,7.20
2010,08,30,09,31,8.40
2010,08,30,09,32,7.00
2010,08,30,09,33,6.40
2010,08,30,09,34,7.70
2010,08,30,09,35,5.90
2010,08,30,09,36,3.50
2010,08,30,09,37,4.50
2010,08,30,09,38,6.80
2010,08,30,09,39,8.50
2010,08,30,09,40,7.10
2010,08,30,09,41,7.20
2010,08,30,09,42,7.10
2010,08,30,09,43,9.10
2010,08,30,09,44,4.60
2010,08,30,09,45,6.80
2010,08,30,09,46,6.40
2010,08,30,09,47,6.10
2010,08,30,09,48,8.50
2010,08,30,09,49,8.20
2010,08,30,09,50,4.90
2010,08,30,09,51,5.40
2010,08,30,09,52,6.90
2010,08,30,09,53,6.80
2010,08,30,09,54,10.50
2010,08,30,09,55,7.30
2010,08,30,09,56,4.70
2010,08,30,09,57,6.40
2010,08,30,09,58,6.00
2010,08,30,09,59,5.60
2010,08,30,10,00,4.90
2010,08,30,10,01,5.40
2010,08,30,10,02,7.70
2010,08,30,10,03,7.60
2010,08,30,10,04,10.20
2010,08,30,10,05,7.90
2010,08,30,10,06,6.80
2010,08,30,10,07,11.20
2010,08,30,10,08,10.10
2010,08,30,10,09,8.00
2010,08,30,10,10,8.10
2010,08,30,10,11,8.90
2010,08,30,10,12,5.90
2010,08,30,10,13,4.60
2010,08,30,10,14,6.70
2010,08,30,10,15,6.30
2010,08,30,10,16,9.10
2010,08,30,10,17,6.80
2010,08,30,10,18,7.60
2010,08,30,10,19,6.00
2010,08,30,10,20,8.30
2010,08,30,10,21,2.60
2010,08,30,10,22,2.20
2010,08,30,10,23,9.10
2010,08,30,10,24,7.10
2010,08,30,10,25,8.50
2010,08,30,10,26,8.50
2010,08,30,10,27,7.60
2010,08,30,10,28,9.00
2010,08,30,10,29,9.40
2010,08,30,10,30,9.40
2010,08,30,10,31,7.40
2010,08,30,10,32,7.70
2010,08,30,10,33,11.20
2010,08,30,10,34,8.20
2010,08,30,10,35,10.00
2010,08,30,10,36,7.40
2010,08,30,10,37,8.30
2010,08,30,10,38,8.60
2010,08,30,10,39,5.30
2010,08,30,10,40,9.10
2010,08,30,10,41,7.10
2010,08,30,10,42,8.60
2010,08,30,10,43,8.40
2010,08,30,10,44,9.30
2010,08,30,10,45,6.60
2010,08,30,10,46,11.70
2010,08,30,10,47,12.10
2010,08,30,10,48,11.90
2010,08,30,10,49,9.30
2010,08,30,10,50,10.10
2010,08,30,10,51,8.50
2010,08,30,10,52,12.30
2010,08,30,10,53,8.60
2010,08,30,10,54,7.40
2010,08,30,10,55,11.10
2010,08,30,10,56,11.10
2010,08,30,10,57,10.20
2010,08,30,10,58,9.60
2010,08,30,10,59,9.60
2010,08,30,11,00,9.70
2010,08,30,11,01,8.40
2010,08,30,11,02,10.90
2010,08,30,11,03,9.00
2010,08,30,11,04,11.40
2010,08,30,11,05,8.50
2010,08,30,11,06,10.10
2010,08,30,11,07,6.80
2010,08,30,11,08,10.50
2010,08,30,11,09,9.70
2010,08,30,11,10,8.50
2010,08,30,11,11,9.60
2010,08,30,11,12,7.40
2010,08,30,11,13,6.60
2010,08,30,11,14,7.20
2010,08,30,11,15,10.20
2010,08,30,11,16,5.10
2010,08,30,11,17,7.90
2010,08,30,11,18,7.90
2010,08,30,11,19,8.70
2010,08,30,11,20,8.00
2010,08,30,11,21,8.90
2010,08,30,11,22,5.00
2010,08,30,11,23,5.90
2010,08,30,11,24,6.30
2010,08,30,11,25,9.40
2010,08,30,11,26,5.90
2010,08,30,11,27,6.70
2010,08,30,11,28,7.30
2010,08,30,11,29,6.70
2010,08,30,11,30,9.40
2010,08,30,11,31,7.20
2010,08,30,11,32,5.80
2010,08,30,11,33,7.20
2010,08,30,11,34,10.10
2010,08,30,11,35,8.50
2010,08,30,11,36,8.70
2010,08,30,11,37,6.00
2010,08,30,11,38,8.90
2010,08,30,11,39,9.10
2010,08,30,11,40,7.10
2010,08,30,11,41,8.50
2010,08,30,11,42,9.00
2010,08,30,11,43,9.30
2010,08,30,11,44,6.20
2010,08,30,11,45,1.40
2010,08,30,11,46,6.80
2010,08,30,11,47,8.50
2010,08,30,11,48,10.30
2010,08,30,11,49,10.10
2010,08,30,11,50,7.70
2010,08,30,11,51,6.50
2010,08,30,11,52,4.20
2010,08,30,11,53,4.30
2010,08,30,11,54,6.60
2010,08,30,11,55,7.70
2010,08,30,11,56,8.30
2010,08,30,11,57,7.20
2010,08,30,11,58,6.20
2010,08,30,11,59,6.30
2010,08,30,12,00,5.40
2010,08,30,12,01,7.20
2010,08,30,12,02,5.70
2010,08,30,12,03,8.80
2010,08,30,12,04,7.70
2010,08,30,12,05,6.90
2010,08,30,12,06,6.50
2010,08,30,12,07,7.90
2010,08,30,12,08,7.70
2010,08,30,12,09,6.80
2010,08,30,12,10,6.50
2010,08,30,12,11,6.20
2010,08,30,12,12,8.30
2010,08,30,12,13,8.80
2010,08,30,12,14,7.20
2010,08,30,12,15,4.00
2010,08,30,12,16,8.30
2010,08,30,12,17,7.90
2010,08,30,12,18,8.30
2010,08,30,12,19,6.80
2010,08,30,12,20,8.10
2010,08,30,12,21,6.70
2010,08,30,12,22,8.00
2010,08,30,12,23,8.90
2010,08,30,12,24,8.90
2010,08,30,12,25,7.70
2010,08,30,12,26,8.50
2010,08,30,12,27,7.70
2010,08,30,12,28,7.10
2010,08,30,12,29,8.40
2010,08,30,12,30,8.60
2010,08,30,12,31,7.10
2010,08,30,12,32,6.80
2010,08,30,12,33,5.10
2010,08,30,12,34,7.40
2010,08,30,12,35,6.70
2010,08,30,12,36,7.40
2010,08,30,12,37,7.80
2010,08,30,12,38,7.80
2010,08,30,12,39,7.50
2010,08,30,12,40,7.30
2010,08,30,12,41,7.90
2010,08,30,12,42,7.70
2010,08,30,12,43,5.40
2010,08,30,12,44,6.40
2010,08,30,12,45,7.40
2010,08,30,12,46,8.60
2010,08,30,12,47,7.60
2010,08,30,12,48,7.70
2010,08,30,12,49,8.90
2010,08,30,12,50,6.80
2010,08,30,12,51,8.10
2010,08,30,12,52,7.60
2010,08,30,12,53,6.00
2010,08,30,12,54,7.70
2010,08,30,12,55,8.60
2010,08,30,12,56,8.10
2010,08,30,12,57,8.10
2010,08,30,12,58,7.90
2010,08,30,12,59,8.80
2010,08,30,13,00,4.60
2010,08,30,13,01,6.70
2010,08,30,13,02,6.70
2010,08,30,13,03,6.20
2010,08,30,13,04,6.00
2010,08,30,13,05,8.00
2010,08,30,13,06,7.70
2010,08,30,13,07,8.10
2010,08,30,13,08,8.90
2010,08,30,13,09,6.90
2010,08,30,13,10,4.80
2010,08,30,13,11,8.30
2010,08,30,13,12,8.90
2010,08,30,13,13,8.90
2010,08,30,13,14,6.00
2010,08,30,13,15,6.80
2010,08,30,13,16,9.10
2010,08,30,13,17,8.30
2010,08,30,13,18,7.80
2010,08,30,13,19,8.10
2010,08,30,13,20,8.90
2010,08,30,13,21,8.00
2010,08,30,13,22,7.30
2010,08,30,13,23,6.40
2010,08,30,13,24,4.00
2010,08,30,13,25,7.30
2010,08,30,13,26,6.90
2010,08,30,13,27,7.60
2010,08,30,13,28,8.50
2010,08,30,13,29,6.80
2010,08,30,13,30,9.30
2010,08,30,13,31,8.50
2010,08,30,13,32,8.30
2010,08,30,13,33,9.50
2010,08,30,13,34,8.20
2010,08,30,13,35,8.60
2010,08,30,13,36,10.80
2010,08,30,13,37,9.80
2010,08,30,13,38,7.80
2010,08,30,13,39,9.20
2010,08,30,13,40,9.00
2010,08,30,13,41,8.50
2010,08,30,13,42,5.10
2010,08,30,13,43,7.00
2010,08,30,13,44,6.60
2010,08,30,13,45,9.20
2010,08,30,13,46,9.40
2010,08,30,13,47,7.70
2010,08,30,13,48,9.10
2010,08,30,13,49,10.70
2010,08,30,13,50,8.40
2010,08,30,13,51,4.80
2010,08,30,13,52,6.80
2010,08,30,13,53,7.60
2010,08,30,13,54,6.60
2010,08,30,13,55,8.60
2010,08,30,13,56,7.90
2010,08,30,13,57,6.30
2010,08,30,13,58,7.50
2010,08,30,13,59,5.80
2010,08,30,14,00,7.80
2010,08,30,14,01,7.60
2010,08,30,14,02,7.80
2010,08,30,14,03,7.70
2010,08,30,14,04,6.60
2010,08,30,14,05,7.10
2010,08,30,14,06,7.30
2010,08,30,14,07,5.70
2010,08,30,14,08,6.90
2010,08,30,14,09,6.70
2010,08,30,14,10,6.30
2010,08,30,14,11,5.10
2010,08,30,14,12,6.10
2010,08,30,14,13,7.00
2010,08,30,14,14,4.90
2010,08,30,14,15,7.30
2010,08,30,14,16,6.80
2010,08,30,14,17,7.30
2010,08,30,14,18,5.30
2010,08,30,14,19,5.30
2010,08,30,14,20,5.60
2010,08,30,14,21,7.60
2010,08,30,14,22,7.80
2010,08,30,14,23,5.20
2010,08,30,14,24,7.40
2010,08,30,14,25,4.10
2010,08,30,14,26,6.60
2010,08,30,14,27,5.80
2010,08,30,14,28,5.50
2010,08,30,14,29,6.50
2010,08,30,14,30,6.90
2010,08,30,14,31,8.50
2010,08,30,14,32,6.50
2010,08,30,14,33,4.30
2010,08,30,14,34,1.90
2010,08,30,14,35,5.60
2010,08,30,14,36,5.50
2010,08,30,14,37,7.10
2010,08,30,14,38,7.30
2010,08,30,14,39,6.20
2010,08,30,14,40,5.90
2010,08,30,14,41,6.80
2010,08,30,14,42,6.00
2010,08,30,14,43,6.50
2010,08,30,14,44,6.20
2010,08,30,14,45,5.90
2010,08,30,14,46,5.20
2010,08,30,14,47,2.50
2010,08,30,14,48,6.30
2010,08,30,14,49,4.90
2010,08,30,14,50,7.00
2010,08,30,14,51,3.90
2010,08,30,14,52,4.20
2010,08,30,14,53,2.20
2010,08,30,14,54,2.60
2010,08,30,14,55,5.50
2010,08,30,14,56,1.60
2010,08,30,14,57,2.00
2010,08,30,14,58,3.70
2010,08,30,14,59,5.10
2010,08,30,15,00,4.70
2010,08,30,15,01,5.10
2010,08,30,15,02,5.40
2010,08,30,15,03,4.50
2010,08,30,15,04,2.20
2010,08,30,15,05,1.60
2010,08,30,15,06,1.50
2010,08,30,15,07,6.10
2010,08,30,15,08,5.10
2010,08,30,15,09,3.50
2010,08,30,15,10,0.40
2010,08,30,15,11,2.40
2010,08,30,15,12,5.80
2010,08,30,15,13,5.00
2010,08,30,15,14,2.40
2010,08,30,15,15,4.50
2010,08,30,15,16,5.90
2010,08,30,15,17,5.20
2010,08,30,15,18,6.40
2010,08,30,15,19,5.10
2010,08,30,15,20,3.00
2010,08,30,15,21,1.90
2010,08,30,15,22,3.40
2010,08,30,15,23,7.90
2010,08,30,15,24,7.90
2010,08,30,15,25,1.80
2010,08,30,15,26,3.90
2010,08,30,15,27,6.40
2010,08,30,15,28,7.40
2010,08,30,15,29,9.30
2010,08,30,15,30,8.80
2010,08,30,15,31,5.30
2010,08,30,15,32,4.00
2010,08,30,15,33,5.30
2010,08,30,15,34,6.30
2010,08,30,15,35,2.10
2010,08,30,15,36,3.30
2010,08,30,15,37,4.80
2010,08,30,15,38,3.50
2010,08,30,15,39,5.40
2010,08,30,15,40,2.60
2010,08,30,15,41,5.10
2010,08,30,15,42,3.40
2010,08,30,15,43,1.60
2010,08,30,15,44,3.10
2010,08,30,15,45,5.60
2010,08,30,15,46,7.00
2010,08,30,15,47,2.00
2010,08,30,15,48,4.30
2010,08,30,15,49,5.50
2010,08,30,15,50,7.60
2010,08,30,15,51,7.20
2010,08,30,15,52,7.50
2010,08,30,15,53,6.60
2010,08,30,15,54,1.20
2010,08,30,15,55,2.20
2010,08,30,15,56,1.60
2010,08,30,15,57,3.00
2010,08,30,15,58,1.50
2010,08,30,15,59,4.30
2010,08,30,16,00,3.00
2010,08,30,16,01,4.40
2010,08,30,16,02,4.70
2010,08,30,16,03,5.60
2010,08,30,16,04,4.50
2010,08,30,16,05,2.60
2010,08,30,16,06,2.30
2010,08,30,16,07,2.20
2010,08,30,16,08,1.30
2010,08,30,16,09,2.30
2010,08,30,16,10,6.80
2010,08,30,16,11,4.20
2010,08,30,16,12,6.40
2010,08,30,16,13,3.10
2010,08,30,16,14,4.10
2010,08,30,16,15,6.10
2010,08,30,16,16,7.40
2010,08,30,16,17,7.60
2010,08,30,16,18,3.80
2010,08,30,16,19,4.50
2010,08,30,16,20,8.60
2010,08,30,16,21,5.30
2010,08,30,16,22,2.20
2010,08,30,16,23,3.50
2010,08,30,16,24,5.10
2010,08,30,16,25,3.90
2010,08,30,16,26,6.50
2010,08,30,16,27,8.20
2010,08,30,16,28,6.80
2010,08,30,16,29,7.70
2010,08,30,16,30,5.60
2010,08,30,16,31,8.10
2010,08,30,16,32,7.00
2010,08,30,16,33,5.10
2010,08,30,16,34,4.40
2010,08,30,16,35,7.80
2010,08,30,16,36,7.10
2010,08,30,16,37,4.40
2010,08,30,16,38,5.60
2010,08,30,16,39,5.90
2010,08,30,16,40,7.60
2010,08,30,16,41,5.70
2010,08,30,16,42,6.40
2010,08,30,16,43,8.20
2010,08,30,16,44,6.70
2010,08,30,16,45,3.80
2010,08,30,16,46,4.60
2010,08,30,16,47,3.80
2010,08,30,16,48,4.50
2010,08,30,16,49,3.90
2010,08,30,16,50,5.70
2010,08,30,16,51,3.40
2010,08,30,16,52,1.60
2010,08,30,16,53,2.90
2010,08,30,16,54,5.20
2010,08,30,16,55,3.80
2010,08,30,16,56,5.90
2010,08,30,16,57,6.60
2010,08,30,16,58,1.80
2010,08,30,16,59,1.40
2010,08,30,17,00,2.00
2010,08,30,17,01,1.60
2010,08,30,17,02,3.70
2010,08,30,17,03,7.20
2010,08,30,17,04,1.20
2010,08,30,17,05,7.60
2010,08,30,17,06,7.40
2010,08,30,17,07,3.50
2010,08,30,17,08,1.40
2010,08,30,17,09,5.00
2010,08,30,17,10,2.80
2010,08,30,17,11,3.40
2010,08,30,17,12,4.50
2010,08,30,17,13,6.80
2010,08,30,17,14,5.30
2010,08,30,17,15,5.40
2010,08,30,17,16,2.40
2010,08,30,17,17,5.70
2010,08,30,17,18,3.90
2010,08,30,17,19,2.10
2010,08,30,17,20,3.60
2010,08,30,17,21,3.00
2010,08,30,17,22,3.30
2010,08,30,17,23,7.00
2010,08,30,17,24,3.90
2010,08,30,17,25,8.20
2010,08,30,17,26,5.10
2010,08,30,17,27,5.40
2010,08,30,17,28,3.80
2010,08,30,17,29,4.80
2010,08,30,17,30,4.40
2010,08,30,17,31,4.10
2010,08,30,17,32,5.00
2010,08,30,17,33,4.40
2010,08,30,17,34,5.80
2010,08,30,17,35,4.70
2010,08,30,17,36,5.00
2010,08,30,17,37,2.40
2010,08,30,17,38,6.00
2010,08,30,17,39,4.50
2010,08,30,17,40,6.10
2010,08,30,17,41,6.00
2010,08,30,17,42,7.20
2010,08,30,17,43,3.70
2010,08,30,17,44,2.80
2010,08,30,17,45,2.80
2010,08,30,17,46,4.90
2010,08,30,17,47,4.60
2010,08,30,17,48,6.80
2010,08,30,17,49,1.70
2010,08,30,17,50,1.00
2010,08,30,17,51,0.70
2010,08,30,17,52,1.10
2010,08,30,17,53,4.70
2010,08,30,17,54,4.40
2010,08,30,17,55,2.40
2010,08,30,17,56,4.80
2010,08,30,17,57,2.10
2010,08,30,17,58,5.80
2010,08,30,17,59,5.70
2010,08,30,18,00,3.70
2010,08,30,18,01,4.70
2010,08,30,18,02,4.20
2010,08,30,18,03,3.70
2010,08,30,18,04,6.40
2010,08,30,18,05,6.20